Find Starlink 5444

NORAD ID: 54768 Int'l Des: 2022-175 Owner: SPXS Country: US Constellation: starlink operational
LEOCIRCULAR

リアルタイム位置

3D地球を読み込み中...

Starlink 5444について

説明を読み込み中...

次回通過

Passes for default location (London). Set your location on the main map for personalized predictions.

高度履歴

Loading altitude history...

軌道要素

1 54768U 22175L 26126.18355563 .00000079 00000-0 23014-4 0 9990
2 54768 53.2160 131.4071 0000929 71.5746 288.5348 15.08834130188802
Epoch: May 6, 2026 • Age: 7 hours

現在のステータス

高度 543.7 km
速度 7.59 km/s
衛星直下点 -13.36°S, 78.6°W
打ち上げ日 Dec 17, 2022
運用期間 3.3 years
タイプ internet

技術仕様

分類 Payload
質量 305.00 kg
乾燥質量 290.00 kg
総質量 305.00 kg
長さ 0.20 m
直径 2.80 m
スパン 9.00 m
形状 Box + pan
製造者 SPXS
バスタイプ Starlink
フェーズステータス In Orbit
所有者/国 SPXS/US

Most Searched